#Datum;Uhrzeit;WR;Pac;DaySum;Status;WR;Pac;DaySum;Status;Pdc1;Udc;Temp;WR;Pac;DaySum;Status;Pdc1;Udc;Temp;WR;Pac;DaySum;Status;Pdc1;Udc;Temp;WR;Pac;DaySum;Status;Pdc1;Pdc2;Udc1;Udc2;Temp;WR;Pac;DaySum;Status;Pdc1;Pdc2;Udc1;Udc2;Temp;WR;Pac;DaySum;Status;Pdc1;Udc;Temp;WR;Pac;DaySum;Status;Pdc1;Udc;Temp;WR;Pac;DaySum;Status;Pdc1;Udc;Temp
13.03.18;23:55:00;1;243;13645;0;2;0;16102;0;0;0;0;3;0;10605;0;0;0;0;4;0;16588;0;0;0;0;5;0;44640;0;0;0;0;0;0;6;0;33935;0;0;0;0;0;0;7;0;25016;0;0;0;0;8;0;24938;0;0;0;0;9;0;13583;0;0;0;0
13.03.18;23:50:00;1;252;13624;0;2;0;16102;0;0;0;0;3;0;10605;0;0;0;0;4;0;16588;0;0;0;0;5;0;44640;0;0;0;0;0;0;6;0;33935;0;0;0;0;0;0;7;0;25016;0;0;0;0;8;0;24938;0;0;0;0;9;0;13583;0;0;0;0
13.03.18;23:45:00;1;253;13603;0;2;0;16102;0;0;0;0;3;0;10605;0;0;0;0;4;0;16588;0;0;0;0;5;0;44640;0;0;0;0;0;0;6;0;33935;0;0;0;0;0;0;7;0;25016;0;0;0;0;8;0;24938;0;0;0;0;9;0;13583;0;0;0;0
13.03.18;23:40:00;1;259;13582;0;2;0;16102;0;0;0;0;3;0;10605;0;0;0;0;4;0;16588;0;0;0;0;5;0;44640;0;0;0;0;0;0;6;0;33935;0;0;0;0;0;0;7;0;25016;0;0;0;0;8;0;24938;0;0;0;0;9;0;13583;0;0;0;0
13.03.18;23:35:00;1;297;13560;0;2;0;16102;0;0;0;0;3;0;10605;0;0;0;0;4;0;16588;0;0;0;0;5;0;44640;0;0;0;0;0;0;6;0;33935;0;0;0;0;0;0;7;0;25016;0;0;0;0;8;0;24938;0;0;0;0;9;0;13583;0;0;0;0
13.03.18;23:30:00;1;299;13535;0;2;0;16102;0;0;0;0;3;0;10605;0;0;0;0;4;0;16588;0;0;0;0;5;0;44640;0;0;0;0;0;0;6;0;33935;0;0;0;0;0;0;7;0;25016;0;0;0;0;8;0;24938;0;0;0;0;9;0;13583;0;0;0;0
13.03.18;23:25:00;1;289;13510;0;2;0;16102;0;0;0;0;3;0;10605;0;0;0;0;4;0;16588;0;0;0;0;5;0;44640;0;0;0;0;0;0;6;0;33935;0;0;0;0;0;0;7;0;25016;0;0;0;0;8;0;24938;0;0;0;0;9;0;13583;0;0;0;0
13.03.18;23:20:00;1;266;13486;0;2;0;16102;0;0;0;0;3;0;10605;0;0;0;0;4;0;16588;0;0;0;0;5;0;44640;0;0;0;0;0;0;6;0;33935;0;0;0;0;0;0;7;0;25016;0;0;0;0;8;0;24938;0;0;0;0;9;0;13583;0;0;0;0
13.03.18;23:15:00;1;189;13464;0;2;0;16102;0;0;0;0;3;0;10605;0;0;0;0;4;0;16588;0;0;0;0;5;0;44640;0;0;0;0;0;0;6;0;33935;0;0;0;0;0;0;7;0;25016;0;0;0;0;8;0;24938;0;0;0;0;9;0;13583;0;0;0;0
13.03.18;23:10:00;1;190;13448;0;2;0;16102;0;0;0;0;3;0;10605;0;0;0;0;4;0;16588;0;0;0;0;5;0;44640;0;0;0;0;0;0;6;0;33935;0;0;0;0;0;0;7;0;25016;0;0;0;0;8;0;24938;0;0;0;0;9;0;13583;0;0;0;0
13.03.18;23:05:00;1;190;13433;0;2;0;16102;0;0;0;0;3;0;10605;0;0;0;0;4;0;16588;0;0;0;0;5;0;44640;0;0;0;0;0;0;6;0;33935;0;0;0;0;0;0;7;0;25016;0;0;0;0;8;0;24938;0;0;0;0;9;0;13583;0;0;0;0
13.03.18;23:00:00;1;190;13417;0;2;0;16102;0;0;0;0;3;0;10605;0;0;0;0;4;0;16588;0;0;0;0;5;0;44640;0;0;0;0;0;0;6;0;33935;0;0;0;0;0;0;7;0;25016;0;0;0;0;8;0;24938;0;0;0;0;9;0;13583;0;0;0;0
13.03.18;22:55:00;1;207;13401;0;2;0;16102;0;0;0;0;3;0;10605;0;0;0;0;4;0;16588;0;0;0;0;5;0;44640;2;0;0;0;0;0;6;0;33935;2;0;0;0;0;0;7;0;25016;0;0;0;0;8;0;24938;0;0;0;0;9;0;13583;0;0;0;0
13.03.18;22:50:00;1;231;13383;0;2;0;16102;0;0;0;0;3;0;10605;0;0;0;0;4;0;16588;0;0;0;0;5;0;44640;2;0;0;0;0;0;6;0;33935;2;0;0;0;0;0;7;0;25016;0;0;0;0;8;0;24938;0;0;0;0;9;0;13583;0;0;0;0
13.03.18;22:45:00;1;234;13364;0;2;0;16102;0;0;0;0;3;0;10605;0;0;0;0;4;0;16588;0;0;0;0;5;0;44640;2;0;0;0;0;0;6;0;33935;2;0;0;0;0;0;7;0;25016;0;0;0;0;8;0;24938;0;0;0;0;9;0;13583;0;0;0;0
13.03.18;22:40:00;1;234;13344;0;2;0;16102;0;0;0;0;3;0;10605;0;0;0;0;4;0;16588;0;0;0;0;5;0;44640;2;0;0;0;0;0;6;0;33935;2;0;0;0;0;0;7;0;25016;0;0;0;0;8;0;24938;0;0;0;0;9;0;13583;0;0;0;0
13.03.18;22:35:00;1;223;13324;0;2;0;16102;0;0;0;0;3;0;10605;0;0;0;0;4;0;16588;0;0;0;0;5;0;44640;2;0;0;0;0;0;6;0;33935;2;0;0;0;0;0;7;0;25016;0;0;0;0;8;0;24938;0;0;0;0;9;0;13583;0;0;0;0
13.03.18;22:30:00;1;222;13306;0;2;0;16102;0;0;0;0;3;0;10605;0;0;0;0;4;0;16588;0;0;0;0;5;0;44640;2;0;0;0;0;0;6;0;33935;2;0;0;0;0;0;7;0;25016;0;0;0;0;8;0;24938;0;0;0;0;9;0;13583;0;0;0;0
13.03.18;22:25:00;1;222;13287;0;2;0;16102;0;0;0;0;3;0;10605;0;0;0;0;4;0;16588;0;0;0;0;5;0;44640;2;0;0;0;0;0;6;0;33935;2;0;0;0;0;0;7;0;25016;0;0;0;0;8;0;24938;0;0;0;0;9;0;13583;0;0;0;0
13.03.18;22:20:00;1;235;13268;0;2;0;16102;0;0;0;0;3;0;10605;0;0;0;0;4;0;16588;0;0;0;0;5;0;44640;2;0;0;0;0;0;6;0;33935;2;0;0;0;0;0;7;0;25016;0;0;0;0;8;0;24938;0;0;0;0;9;0;13583;0;0;0;0
13.03.18;22:15:00;1;252;13249;0;2;0;16102;0;0;0;0;3;0;10605;0;0;0;0;4;0;16588;0;0;0;0;5;0;44640;2;0;0;0;0;0;6;0;33935;2;0;0;0;0;0;7;0;25016;0;0;0;0;8;0;24938;0;0;0;0;9;0;13583;0;0;0;0
13.03.18;22:10:00;1;270;13227;0;2;0;16102;0;0;0;0;3;0;10605;0;0;0;0;4;0;16588;0;0;0;0;5;0;44640;2;0;0;0;0;0;6;0;33935;2;0;0;0;0;0;7;0;25016;0;0;0;0;8;0;24938;0;0;0;0;9;0;13583;0;0;0;0
13.03.18;22:05:00;1;346;13205;0;2;0;16102;0;0;0;0;3;0;10605;0;0;0;0;4;0;16588;0;0;0;0;5;0;44640;2;0;0;0;0;0;6;0;33935;2;0;0;0;0;0;7;0;25016;0;0;0;0;8;0;24938;0;0;0;0;9;0;13583;0;0;0;0
13.03.18;22:00:00;1;336;13176;0;2;0;16102;0;0;0;0;3;0;10605;0;0;0;0;4;0;16588;0;0;0;0;5;0;44640;2;0;0;0;0;0;6;0;33935;2;0;0;0;0;0;7;0;25016;0;0;0;0;8;0;24938;0;0;0;0;9;0;13583;0;0;0;0
13.03.18;21:55:00;1;334;13148;0;2;0;16102;0;0;0;0;3;0;10605;0;0;0;0;4;0;16588;0;0;0;0;5;0;44640;2;0;0;0;0;0;6;0;33935;2;0;0;0;0;0;7;0;25016;0;0;0;0;8;0;24938;0;0;0;0;9;0;13583;0;0;0;0
13.03.18;21:50:00;1;364;13119;0;2;0;16102;0;0;0;0;3;0;10605;0;0;0;0;4;0;16588;0;0;0;0;5;0;44640;2;0;0;0;0;0;6;0;33935;2;0;0;0;0;0;7;0;25016;0;0;0;0;8;0;24938;0;0;0;0;9;0;13583;0;0;0;0
13.03.18;21:45:00;1;528;13089;0;2;0;16102;0;0;0;0;3;0;10605;0;0;0;0;4;0;16588;0;0;0;0;5;0;44640;2;0;0;0;0;0;6;0;33935;2;0;0;0;0;0;7;0;25016;0;0;0;0;8;0;24938;0;0;0;0;9;0;13583;0;0;0;0
13.03.18;21:40:00;1;689;13031;0;2;0;16102;0;0;0;0;3;0;10605;0;0;0;0;4;0;16588;0;0;0;0;5;0;44640;2;0;0;0;0;0;6;0;33935;2;0;0;0;0;0;7;0;25016;0;0;0;0;8;0;24938;0;0;0;0;9;0;13583;0;0;0;0
13.03.18;21:35:00;1;438;12975;0;2;0;16102;0;0;0;0;3;0;10605;0;0;0;0;4;0;16588;0;0;0;0;5;0;44640;2;0;0;0;0;0;6;0;33935;2;0;0;0;0;0;7;0;25016;0;0;0;0;8;0;24938;0;0;0;0;9;0;13583;0;0;0;0
13.03.18;21:30:00;1;403;12946;0;2;0;16102;0;0;0;0;3;0;10605;0;0;0;0;4;0;16588;0;0;0;0;5;0;44640;2;0;0;0;0;0;6;0;33935;2;0;0;0;0;0;7;0;25016;0;0;0;0;8;0;24938;0;0;0;0;9;0;13583;0;0;0;0
13.03.18;21:25:00;1;419;12913;0;2;0;16102;0;0;0;0;3;0;10605;0;0;0;0;4;0;16588;0;0;0;0;5;0;44640;2;0;0;0;0;0;6;0;33935;2;0;0;0;0;0;7;0;25016;0;0;0;0;8;0;24938;0;0;0;0;9;0;13583;0;0;0;0
13.03.18;21:20:00;1;458;12875;0;2;0;16102;0;0;0;0;3;0;10605;0;0;0;0;4;0;16588;0;0;0;0;5;0;44640;2;0;0;0;0;0;6;0;33935;2;0;0;0;0;0;7;0;25016;0;0;0;0;8;0;24938;0;0;0;0;9;0;13583;0;0;0;0
13.03.18;21:15:00;1;371;12838;0;2;0;16102;0;0;0;0;3;0;10605;0;0;0;0;4;0;16588;0;0;0;0;5;0;44640;2;0;0;0;0;0;6;0;33935;2;0;0;0;0;0;7;0;25016;0;0;0;0;8;0;24938;0;0;0;0;9;0;13583;0;0;0;0
13.03.18;21:10:00;1;348;12807;0;2;0;16102;0;0;0;0;3;0;10605;0;0;0;0;4;0;16588;0;0;0;0;5;0;44640;2;0;0;0;0;0;6;0;33935;2;0;0;0;0;0;7;0;25016;0;0;0;0;8;0;24938;0;0;0;0;9;0;13583;0;0;0;0
13.03.18;21:05:00;1;339;12778;0;2;0;16102;0;0;0;0;3;0;10605;0;0;0;0;4;0;16588;0;0;0;0;5;0;44640;2;0;0;0;0;0;6;0;33935;2;0;0;0;0;0;7;0;25016;0;0;0;0;8;0;24938;0;0;0;0;9;0;13583;0;0;0;0
13.03.18;21:00:00;1;305;12746;0;2;0;16102;0;0;0;0;3;0;10605;0;0;0;0;4;0;16588;0;0;0;0;5;0;44640;2;0;0;0;0;0;6;0;33935;2;0;0;0;0;0;7;0;25016;0;0;0;0;8;0;24938;0;0;0;0;9;0;13583;0;0;0;0
13.03.18;20:55:00;1;307;12718;0;2;0;16102;0;0;0;0;3;0;10605;0;0;0;0;4;0;16588;0;0;0;0;5;0;44640;2;0;0;0;0;0;6;0;33935;2;0;0;0;0;0;7;0;25016;0;0;0;0;8;0;24938;0;0;0;0;9;0;13583;0;0;0;0
13.03.18;20:50:00;1;322;12691;0;2;0;16102;0;0;0;0;3;0;10605;0;0;0;0;4;0;16588;0;0;0;0;5;0;44640;2;0;0;0;0;0;6;0;33935;2;0;0;0;0;0;7;0;25016;0;0;0;0;8;0;24938;0;0;0;0;9;0;13583;0;0;0;0
13.03.18;20:45:00;1;299;12664;0;2;0;16102;0;0;0;0;3;0;10605;0;0;0;0;4;0;16588;0;0;0;0;5;0;44640;2;0;0;0;0;0;6;0;33935;2;0;0;0;0;0;7;0;25016;0;0;0;0;8;0;24938;0;0;0;0;9;0;13583;0;0;0;0
13.03.18;20:40:00;1;205;12640;0;2;0;16102;0;0;0;0;3;0;10605;0;0;0;0;4;0;16588;0;0;0;0;5;0;44640;2;0;0;0;0;0;6;0;33935;2;0;0;0;0;0;7;0;25016;0;0;0;0;8;0;24938;0;0;0;0;9;0;13583;0;0;0;0
13.03.18;20:35:00;1;194;12622;0;2;0;16102;0;0;0;0;3;0;10605;0;0;0;0;4;0;16588;0;0;0;0;5;0;44640;2;0;0;0;0;0;6;0;33935;2;0;0;0;0;0;7;0;25016;0;0;0;0;8;0;24938;0;0;0;0;9;0;13583;0;0;0;0
13.03.18;20:30:00;1;326;12603;0;2;0;16102;0;0;0;0;3;0;10605;0;0;0;0;4;0;16588;0;0;0;0;5;0;44640;2;0;0;0;0;0;6;0;33935;2;0;0;0;0;0;7;0;25016;0;0;0;0;8;0;24938;0;0;0;0;9;0;13583;0;0;0;0
13.03.18;20:25:00;1;297;12576;0;2;0;16102;0;0;0;0;3;0;10605;0;0;0;0;4;0;16588;0;0;0;0;5;0;44640;2;0;0;0;0;0;6;0;33935;2;0;0;0;0;0;7;0;25016;0;0;0;0;8;0;24938;0;0;0;0;9;0;13583;0;0;0;0
13.03.18;20:20:00;1;266;12552;0;2;0;16102;0;0;0;0;3;0;10605;0;0;0;0;4;0;16588;0;0;0;0;5;0;44640;2;0;0;0;0;0;6;0;33935;2;0;0;0;0;0;7;0;25016;0;0;0;0;8;0;24938;0;0;0;0;9;0;13583;0;0;0;0
13.03.18;20:15:00;1;407;12529;0;2;0;16102;0;0;0;0;3;0;10605;0;0;0;0;4;0;16588;0;0;0;0;5;0;44640;2;0;0;0;0;0;6;0;33935;2;0;0;0;0;0;7;0;25016;0;0;0;0;8;0;24938;0;0;0;0;9;0;13583;0;0;0;0
13.03.18;20:10:00;1;2687;12474;0;2;0;16102;0;0;0;0;3;0;10605;0;0;0;0;4;0;16588;0;0;0;0;5;0;44640;2;0;0;0;0;0;6;0;33935;2;0;0;0;0;0;7;0;25016;0;0;0;0;8;0;24938;0;0;0;0;9;0;13583;0;0;0;0
13.03.18;20:05:00;1;2800;12247;0;2;0;16102;0;0;0;0;3;0;10605;0;0;0;0;4;0;16588;0;0;0;0;5;0;44640;2;0;0;0;0;0;6;0;33935;2;0;0;0;0;0;7;0;25016;0;0;0;0;8;0;24938;0;0;0;0;9;0;13583;0;0;0;0
13.03.18;20:00:00;1;2744;12014;0;2;0;16102;0;0;0;0;3;0;10605;0;0;0;0;4;0;16588;0;0;0;0;5;0;44640;2;0;0;0;0;0;6;0;33935;2;0;0;0;0;0;7;0;25016;0;0;0;0;8;0;24938;0;0;0;0;9;0;13583;0;0;0;0
13.03.18;19:55:00;1;2562;11786;0;2;0;16102;0;0;0;0;3;0;10605;0;0;0;0;4;0;16588;0;0;0;0;5;0;44640;2;0;0;0;0;0;6;0;33935;2;0;0;0;0;0;7;0;25016;0;0;0;0;8;0;24938;0;0;0;0;9;0;13583;0;0;0;0
13.03.18;19:50:00;1;840;11615;0;2;0;16102;0;0;0;0;3;0;10605;0;0;0;0;4;0;16588;0;0;0;0;5;0;44640;2;0;0;0;0;0;6;0;33935;2;0;0;0;0;0;7;0;25016;0;0;0;0;8;0;24938;0;0;0;0;9;0;13583;0;0;0;0
13.03.18;19:45:00;1;826;11546;0;2;0;16102;0;0;0;0;3;0;10605;0;0;0;0;4;0;16588;0;0;0;0;5;0;44640;2;0;0;0;0;0;6;0;33935;2;0;0;0;0;0;7;0;25016;0;0;0;0;8;0;24938;0;0;0;0;9;0;13583;0;0;0;0
13.03.18;19:40:00;1;765;11477;0;2;0;16102;0;0;0;0;3;0;10605;0;0;0;0;4;0;16588;0;0;0;0;5;0;44640;2;0;0;0;0;0;6;0;33935;2;0;0;0;0;0;7;0;25016;0;0;0;0;8;0;24938;0;0;0;0;9;0;13583;0;0;0;0
13.03.18;19:35:00;1;684;11414;0;2;0;16102;0;0;0;0;3;0;10605;0;0;0;0;4;0;16588;0;0;0;0;5;0;44640;2;0;0;0;0;0;6;0;33935;2;0;0;0;0;0;7;0;25016;0;0;0;0;8;0;24938;0;0;0;0;9;0;13583;0;0;0;0
13.03.18;19:30:00;1;607;11359;0;2;0;16102;0;0;0;0;3;0;10605;0;0;0;0;4;0;16588;0;0;0;0;5;0;44640;2;0;0;0;0;0;6;0;33935;2;0;0;0;0;0;7;0;25016;0;0;0;0;8;0;24938;0;0;0;0;9;0;13583;0;0;0;0
13.03.18;19:25:00;1;550;11306;0;2;0;16102;0;0;0;0;3;0;10605;0;0;0;0;4;0;16588;0;0;0;0;5;0;44640;2;0;0;0;0;0;6;0;33935;2;0;0;0;0;0;7;0;25016;0;0;0;0;8;0;24938;0;0;0;0;9;0;13583;0;0;0;0
13.03.18;19:20:00;1;564;11260;0;2;0;16102;0;0;0;0;3;0;10605;0;0;0;0;4;0;16588;0;0;0;0;5;0;44640;2;0;0;0;0;0;6;0;33935;2;0;0;0;0;0;7;0;25016;0;0;0;0;8;0;24938;0;0;0;0;9;0;13583;0;0;0;0
13.03.18;19:15:00;1;2224;11213;0;2;0;16102;0;0;0;0;3;0;10605;0;0;0;0;4;0;16588;0;0;0;0;5;0;44640;2;0;0;0;0;0;6;0;33935;2;0;0;0;0;0;7;0;25016;0;0;0;0;8;0;24938;0;0;0;0;9;0;13583;0;0;0;0
13.03.18;19:10:00;1;2460;11030;0;2;0;16102;0;0;0;0;3;0;10605;0;0;0;0;4;0;16588;0;0;0;0;5;0;44640;2;0;0;0;0;0;6;0;33935;2;0;0;0;0;0;7;0;25016;0;0;0;0;8;0;24938;0;0;0;0;9;0;13583;0;0;0;0
13.03.18;19:05:00;1;2536;10820;0;2;0;16102;0;0;0;0;3;0;10605;0;0;0;0;4;0;16588;0;0;0;0;5;0;44640;2;0;0;0;0;0;6;0;33935;2;0;0;0;0;0;7;0;25016;0;0;0;0;8;0;24938;0;0;0;0;9;0;13583;0;0;0;0
13.03.18;19:00:00;1;2386;10609;0;2;0;16102;0;0;0;0;3;0;10605;0;0;0;0;4;0;16588;0;0;0;0;5;0;44640;2;0;0;0;0;0;6;0;33935;2;0;0;0;0;0;7;0;25016;0;0;0;0;8;0;24938;0;0;0;0;9;0;13583;0;0;0;0
13.03.18;18:55:00;1;806;10423;0;2;0;16102;0;0;0;0;3;0;10605;0;0;0;0;4;0;16588;0;0;0;0;5;0;44640;2;0;0;0;0;0;6;0;33935;2;0;0;0;0;0;7;0;25016;0;0;0;0;8;0;24938;0;0;0;0;9;0;13583;0;0;0;0
13.03.18;18:50:00;1;786;10355;0;2;0;16102;0;0;0;0;3;0;10605;0;0;0;0;4;0;16588;0;0;0;0;5;0;44640;2;0;0;0;0;0;6;0;33935;2;0;0;0;0;0;7;0;25016;0;0;0;0;8;0;24938;0;0;0;0;9;0;13583;0;0;0;0
13.03.18;18:45:00;1;728;10292;0;2;0;16102;0;0;0;0;3;0;10605;0;0;0;0;4;0;16588;0;0;0;0;5;0;44640;2;0;0;0;0;0;6;0;33935;2;0;0;0;0;0;7;0;25016;0;0;0;0;8;0;24938;0;0;0;0;9;0;13583;0;0;0;0
13.03.18;18:40:00;1;767;10233;0;2;0;16102;0;0;0;0;3;0;10605;0;0;0;0;4;0;16588;0;0;0;0;5;0;44640;2;0;0;0;0;0;6;0;33935;2;0;0;0;0;0;7;0;25016;0;0;0;0;8;0;24938;0;0;0;0;9;0;13583;0;0;0;0
13.03.18;18:35:00;1;769;10169;0;2;0;16102;0;0;0;0;3;0;10605;0;0;0;0;4;0;16588;0;0;0;0;5;0;44640;2;0;0;0;0;0;6;0;33935;2;0;0;0;0;0;7;0;25016;0;0;0;0;8;0;24938;0;0;0;0;9;0;13583;0;0;0;0
13.03.18;18:30:00;1;759;10105;0;2;0;16102;0;0;0;0;3;0;10605;0;0;110;8;4;0;16588;0;0;0;0;5;0;44640;2;0;0;0;0;0;6;0;33935;2;0;0;0;0;0;7;0;25016;0;0;0;0;8;0;24938;0;0;0;0;9;0;13583;0;0;0;0
13.03.18;18:25:00;1;1231;10040;0;2;0;16102;6;0;276;18;3;0;10605;6;0;309;20;4;0;16588;0;0;57;14;5;0;44640;2;0;0;0;0;0;6;0;33935;2;0;0;0;0;0;7;0;25016;0;0;0;0;8;0;24938;0;0;0;0;9;0;13583;0;0;0;0
13.03.18;18:20:00;1;1381;9912;0;2;0;16102;6;0;323;18;3;0;10605;6;0;386;20;4;0;16588;1;0;109;17;5;0;44640;2;0;0;150;165;14;6;0;33935;1;5;0;158;137;13;7;0;25016;0;0;89;6;8;0;24938;0;0;89;6;9;0;13583;0;0;135;7
13.03.18;18:15:00;1;1939;9788;0;2;0;16102;6;0;360;18;3;0;10605;3;4;412;20;4;0;16588;1;0;162;18;5;0;44640;23;0;0;382;392;28;6;0;33935;23;10;0;181;507;27;7;0;25016;6;0;326;19;8;0;24938;6;0;329;19;9;0;13583;6;0;342;15
13.03.18;18:10:00;1;2657;9628;0;2;0;16102;6;0;381;18;3;0;10605;6;3;462;20;4;0;16588;1;0;196;18;5;0;44640;26;0;0;404;566;29;6;0;33935;23;9;1;245;537;27;7;0;25016;6;0;377;20;8;0;24938;6;0;378;19;9;0;13583;6;0;398;16
13.03.18;18:05:00;1;2696;9405;0;2;0;16102;6;0;405;19;3;0;10605;6;6;467;21;4;0;16588;3;0;203;19;5;61;44640;1;4;9;379;602;29;6;21;33935;1;16;10;493;353;28;7;0;25016;6;2;432;20;8;1;24938;6;2;433;20;9;0;13583;6;0;486;16
13.03.18;18:00:00;1;1058;9181;0;2;62;16102;4;101;359;19;3;4;10605;6;10;525;21;4;24;16588;3;25;198;19;5;147;44635;4;45;46;370;589;30;6;71;33933;4;56;26;439;213;29;7;35;25016;6;51;405;20;8;20;24938;6;35;433;20;9;4;13583;3;13;504;16
13.03.18;17:55:00;1;750;9103;0;2;57;16097;4;93;358;19;3;6;10604;6;13;519;21;4;16;16586;3;16;198;19;5;139;44623;4;40;42;370;589;30;6;69;33927;4;44;20;439;212;29;7;24;25013;4;45;418;20;8;5;24936;6;11;471;20;9;2;13582;6;12;490;16
13.03.18;17:50:00;1;711;9039;0;2;49;16092;4;87;358;20;3;0;10604;6;0;543;21;4;10;16585;3;10;199;19;5;131;44611;4;34;40;370;589;30;6;63;33921;4;53;24;439;212;29;7;9;25011;6;19;450;21;8;3;24936;6;9;472;20;9;1;13582;6;5;519;17
13.03.18;17:45:00;1;749;8978;0;2;70;16088;4;106;363;20;3;14;10604;3;29;506;21;4;27;16584;3;28;198;20;5;177;44600;4;62;60;370;589;30;6;86;33916;4;44;20;439;212;29;7;31;25010;6;62;434;21;8;39;24936;6;68;418;21;9;3;13582;6;9;506;17
13.03.18;17:40:00;1;762;8916;0;2;165;16082;4;206;374;20;3;88;10602;4;134;500;22;4;124;16582;3;129;214;20;5;312;44585;4;139;121;370;589;30;6;151;33908;4;114;54;439;212;29;7;147;25008;4;188;454;21;8;145;24933;4;181;447;21;9;65;13582;6;89;478;17
13.03.18;17:35:00;1;1404;8842;0;2;118;16069;4;158;361;21;3;64;10595;4;105;481;22;4;69;16572;5;72;202;20;5;244;44558;4;102;95;370;589;30;6;122;33895;4;80;40;439;212;29;7;116;24996;4;147;394;21;8;105;24921;4;148;443;21;9;8;13577;6;13;544;17
13.03.18;17:30:00;1;1576;8727;0;2;133;16058;4;173;368;21;3;76;10589;4;116;476;23;4;88;16565;3;92;204;20;5;305;44538;4;132;120;370;589;30;6;150;33885;4;123;59;439;212;29;7;124;24985;4;162;400;21;8;119;24911;4;159;430;21;9;33;13576;6;50;523;18
13.03.18;17:25:00;1;2602;8577;0;2;280;16047;4;326;385;22;3;167;10583;4;211;488;23;4;216;16558;5;226;223;20;5;541;44512;4;253;225;387;618;30;6;285;33873;4;206;84;554;212;29;7;264;24975;4;304;462;21;8;261;24901;4;304;453;21;9;135;13574;4;170;498;18
13.03.18;17:20:00;1;2506;8364;0;2;684;16025;4;744;391;22;3;403;10570;4;454;462;24;4;562;16541;5;585;239;21;5;915;44464;4;452;391;421;632;30;6;484;33847;4;355;131;580;213;29;7;649;24953;4;708;464;22;8;613;24880;4;670;481;21;9;292;13563;4;337;525;19
13.03.18;17:15:00;1;2602;8153;0;2;1006;15969;4;1072;361;22;3;585;10537;4;641;450;24;4;876;16495;5;912;243;21;5;865;44387;4;416;353;418;676;31;6;437;33807;4;351;157;539;213;29;7;1258;24900;4;1326;451;22;8;1030;24830;4;1084;456;21;9;223;13539;4;266;551;19
13.03.18;17:10:00;1;2225;7938;0;2;555;15886;4;609;393;22;3;298;10488;4;346;487;23;4;539;16423;5;561;231;20;5;652;44315;4;315;271;408;616;31;6;317;33770;4;238;117;444;212;29;7;652;24797;4;699;467;22;8;538;24744;4;581;455;21;9;116;13520;4;171;534;19
13.03.18;17:05:00;1;2304;7712;0;2;250;15839;4;295;381;22;3;155;10463;4;196;500;23;4;197;16376;5;205;224;20;5;464;44260;4;216;195;380;594;31;6;219;33744;4;144;68;439;213;30;7;281;24743;4;313;461;22;8;263;24700;4;310;469;22;9;133;13510;4;170;507;19
13.03.18;17:00:00;1;593;7526;0;2;200;15817;4;244;376;22;3;120;10449;4;158;456;23;4;153;16359;5;160;220;21;5;418;44221;4;188;176;376;589;31;6;239;33726;4;123;101;445;340;30;7;211;24718;4;255;452;22;8;209;24677;4;250;455;22;9;108;13499;4;145;505;19
13.03.18;16:55:00;1;621;7476;0;2;267;15800;4;313;382;22;3;162;10439;4;205;493;23;4;213;16346;5;222;224;21;5;572;44186;4;271;235;396;608;31;6;430;33705;4;227;237;563;533;30;7;251;24701;4;293;459;22;8;244;24660;4;289;454;22;9;131;13490;4;167;496;19
13.03.18;16:50:00;1;2835;7394;0;2;469;15778;4;521;391;22;3;288;10425;4;338;498;23;4;387;16328;5;403;233;21;5;929;44136;4;459;391;412;640;31;6;699;33667;4;381;382;578;559;30;7;444;24679;4;494;455;22;8;444;24639;4;487;467;22;9;234;13479;4;275;516;20
13.03.18;16:45:00;1;1464;7161;0;2;598;15739;4;657;397;22;3;375;10402;4;429;502;23;4;503;16297;5;523;233;22;5;1125;44057;4;565;472;416;667;31;6;854;33608;4;432;431;585;557;30;7;631;24643;4;675;466;22;8;619;24603;4;671;469;22;9;331;13459;4;379;517;20
13.03.18;16:40:00;1;906;7054;0;2;846;15690;4;912;401;22;3;460;10371;4;514;502;23;4;674;16255;5;702;237;22;5;1361;43963;4;699;578;415;677;31;6;996;33536;4;509;517;586;562;30;7;793;24591;4;848;455;23;8;785;24552;4;840;476;22;9;398;13432;4;446;515;20
13.03.18;16:35:00;1;687;6987;0;2;1028;15621;4;1101;406;22;3;578;10333;4;640;534;23;4;856;16200;5;892;244;22;5;1660;43843;4;854;710;422;678;31;6;1273;33446;4;652;641;591;567;30;7;1263;24526;4;1339;465;23;8;1276;24487;4;1349;480;22;9;538;13400;4;595;528;21
13.03.18;16:30:00;1;566;6923;0;2;936;15534;4;1003;402;22;3;597;10284;4;659;520;23;4;794;16127;5;828;242;22;5;1588;43706;4;799;676;417;680;31;6;1216;33343;4;640;619;594;564;30;7;1204;24407;4;1272;483;23;8;1188;24366;4;1256;481;23;9;558;13352;4;613;536;21
13.03.18;16:25:00;1;545;6876;0;2;698;15455;4;759;403;22;3;435;10234;4;490;496;23;4;564;16060;5;587;237;22;5;1148;43578;4;570;490;420;656;32;6;892;33244;4;447;448;591;558;30;7;842;24306;4;903;473;23;8;831;24266;4;889;469;23;9;396;13305;4;446;528;21
13.03.18;16:20:00;1;545;6831;0;2;605;15396;4;662;396;22;3;378;10197;4;431;513;23;4;486;16012;5;506;238;22;5;1066;43482;4;532;447;415;654;32;6;806;33171;4;412;418;586;565;30;7;638;24235;4;690;477;23;8;627;24196;4;682;473;23;9;310;13272;4;359;527;21
13.03.18;16:15:00;1;558;6785;0;2;554;15346;4;610;395;22;3;347;10166;4;399;502;23;4;436;15972;5;454;237;22;5;945;43393;4;479;392;412;629;32;6;724;33103;4;365;366;578;555;30;7;585;24181;4;634;470;23;8;579;24144;4;629;466;23;9;289;13246;4;334;520;21
13.03.18;16:10:00;1;2657;6718;0;2;424;15299;4;477;392;23;3;262;10136;4;310;494;23;4;337;15935;5;351;231;23;5;794;43316;4;386;333;406;633;32;6;600;33044;4;308;303;570;546;30;7;436;24132;4;485;452;23;8;433;24095;4;473;453;23;9;215;13222;4;254;502;21
13.03.18;16:05:00;1;2627;6496;0;2;531;15264;4;589;392;23;3;331;10114;4;382;498;24;4;445;15907;5;464;235;23;5;1093;43249;4;553;464;407;658;32;6;828;32993;4;412;420;575;557;30;7;548;24095;4;600;464;24;8;541;24059;4;590;463;23;9;276;13204;4;323;512;22
13.03.18;16:00:00;1;2457;6278;0;2;707;15220;4;770;402;24;3;441;10087;4;495;493;24;4;612;15870;5;637;235;24;5;1458;43155;4;753;619;417;668;32;6;1100;32923;4;558;546;583;562;30;7;751;24050;4;813;464;24;8;749;24014;4;806;466;24;9;399;13181;4;448;521;22
13.03.18;15:55:00;1;2310;6075;0;2;948;15161;4;1019;403;25;3;599;10050;4;661;518;25;4;826;15820;5;860;237;24;5;1834;43032;4;946;801;426;682;32;6;1398;32830;4;721;718;589;564;30;7;1031;23988;4;1095;472;24;8;1014;23953;4;1071;470;24;9;539;13148;4;597;529;22
13.03.18;15:50:00;1;2336;5883;0;2;1642;15082;4;1744;408;25;3;950;10000;4;1024;506;25;4;1328;15750;5;1383;243;24;5;2559;42875;4;1341;1124;429;687;32;6;1896;32711;4;979;941;596;576;30;7;1593;23902;4;1688;479;24;8;1546;23867;4;1629;474;24;9;825;13103;4;892;524;23
13.03.18;15:45:00;1;1439;5688;0;2;2429;14949;4;2561;411;24;3;1362;9922;4;1451;493;24;4;2029;15642;5;2113;247;23;5;3574;42638;4;1913;1580;433;691;32;6;2788;32536;4;1434;1401;599;582;30;7;3190;23771;4;3345;483;24;8;3146;23740;4;3293;481;24;9;1710;13035;4;1814;534;22
13.03.18;15:40:00;1;656;5597;0;2;700;14751;4;761;398;23;3;445;9812;4;501;500;24;4;581;15477;5;605;239;23;5;1210;42365;4;611;516;416;649;32;6;934;32325;4;463;446;583;555;30;7;798;23514;4;856;471;24;8;802;23488;4;855;463;24;9;433;12898;4;481;515;22
13.03.18;15:35:00;1;544;5543;0;2;550;14691;4;605;397;24;3;343;9774;4;396;508;24;4;458;15428;5;477;234;24;5;1059;42266;4;530;448;407;642;33;6;805;32249;4;416;423;580;557;31;7;567;23446;4;614;472;24;8;565;23420;4;618;467;24;9;295;12861;4;341;515;22
13.03.18;15:30:00;1;940;5498;0;2;531;14646;4;587;399;24;3;331;9745;4;383;496;25;4;444;15390;5;463;232;24;5;1086;42178;4;546;463;408;646;33;6;831;32181;4;443;442;582;561;31;7;579;23399;4;626;469;25;8;574;23373;4;625;466;24;9;300;12836;4;346;512;22
13.03.18;15:25:00;1;556;5431;0;2;720;14602;4;784;400;25;3;455;9718;4;513;507;25;4;614;15353;5;639;239;24;5;1431;42086;4;726;611;419;682;33;6;1092;32111;4;548;547;586;562;31;7;770;23351;4;819;459;25;8;761;23325;4;817;467;25;9;406;12811;4;457;511;23
13.03.18;15:20:00;1;916;5372;0;2;777;14543;4;841;403;25;3;493;9680;4;551;510;25;4;667;15303;5;695;240;25;5;1556;41966;4;791;667;419;681;33;6;1184;32019;4;620;625;593;562;31;7;858;23288;4;917;464;25;8;854;23263;4;910;466;25;9;457;12778;4;509;519;23
13.03.18;15:15:00;1;611;5315;0;2;798;14478;4;864;401;26;3;509;9639;4;566;505;26;4;700;15247;5;729;237;25;5;1608;41835;4;817;688;420;689;34;6;1236;31920;4;617;610;592;562;31;7;977;23217;4;1036;467;26;8;969;23192;4;1035;469;25;9;527;12740;4;580;520;24
13.03.18;15:10:00;1;576;5264;0;2;685;14411;4;748;400;26;3;433;9597;4;487;493;26;4;600;15189;5;625;236;26;5;1379;41700;4;696;592;415;669;34;6;1065;31817;4;544;534;583;555;31;7;908;23136;4;969;465;26;8;900;23112;4;961;462;26;9;489;12697;4;541;509;24
13.03.18;15:05:00;1;577;5216;0;2;479;14354;4;535;392;27;3;296;9561;4;345;496;26;4;404;15139;5;420;231;26;5;1009;41589;4;498;426;406;644;34;6;761;31731;4;390;390;570;550;31;7;545;23060;4;588;464;26;8;537;23037;4;590;454;26;9;287;12656;4;331;512;24
13.03.18;15:00:00;1;703;5168;0;2;818;14314;4;888;408;28;3;514;9536;4;574;516;27;4;730;15105;5;760;234;27;5;1793;41504;4;924;773;416;667;34;6;1350;31666;4;682;665;587;567;32;7;882;23014;4;943;477;27;8;864;22991;4;924;473;27;9;456;12632;4;511;520;25
13.03.18;14:55:00;1;575;5108;0;2;1491;14247;4;1583;403;29;3;944;9494;4;1019;524;28;4;1343;15046;5;1399;246;28;5;2981;41348;4;1580;1314;422;680;35;6;2267;31549;4;1160;1120;594;570;32;7;1811;22942;4;1910;479;27;8;1780;22920;4;1882;477;27;9;973;12594;4;1047;520;26
13.03.18;14:50:00;1;535;5060;0;2;2197;14124;4;2317;407;30;3;1292;9417;4;1382;524;28;4;1921;14935;5;2001;242;28;5;3805;41094;4;2043;1681;427;691;35;6;2775;31355;4;1405;1386;595;577;32;7;2514;22793;4;2642;472;27;8;2502;22778;4;2633;481;27;9;1446;12516;4;1542;537;27
13.03.18;14:45:00;1;594;5016;0;2;1553;13944;4;1648;407;29;3;998;9310;4;1075;516;28;4;1513;14777;5;1576;245;28;5;3139;40778;4;1670;1367;425;692;35;6;2153;31117;4;1088;1085;592;567;32;7;1986;22585;4;2093;480;27;8;1920;22566;4;2017;463;27;9;1118;12395;4;1199;536;27
13.03.18;14:40:00;1;548;4970;0;2;1396;13815;4;1486;399;31;3;889;9228;4;965;519;28;4;1263;14652;5;1315;239;29;5;2666;40567;4;1411;1185;414;674;35;6;2270;30951;4;1165;1117;592;563;32;7;1526;22417;4;1621;468;27;8;1503;22404;4;1590;473;27;9;805;12301;4;874;527;27